When you browse on this site, cookies collect data to enhance your experience and personalize the content and advertising you see.
Visit our Privacy Policy to learn more. By continuing to use the site, you agree to this use of cookies and data.
  • In Portugal
  • List of Countries
  • For 7 days
  • Water Temperature
  • Weather Map
  • Weather Widgets
  • user-avatar
    Login

    Hourly Weather Djelfa

    Today, 28 May, Thursday

    Time Temperature Precipitation Wind Pressure Humidity
    00:00 +21°C° 0 mm 2 mps 669 mmHg 44%
    01:00 +20°C° 0 mm 3 mps 669 mmHg 46%
    02:00 +20°C° 0 mm 4 mps 669 mmHg 48%
    03:00 +19°C° 0 mm 6 mps 669 mmHg 50%
    04:00 +19°C° 0 mm 6 mps 669 mmHg 51%
    05:00 +17°C° 0 mm 7 mps 669 mmHg 52%
    06:00 +17°C° 0 mm 8 mps 669 mmHg 53%
    07:00 +18°C° 0 mm 8 mps 669 mmHg 48%
    08:00 +20°C° 0 mm 8 mps 670 mmHg 44%
    09:00 +22°C° 0 mm 8 mps 670 mmHg 40%
    10:00 +23°C° 0 mm 7 mps 670 mmHg 36%
    11:00 +26°C° 0 mm 6 mps 670 mmHg 32%
    12:00 +27°C° 0 mm 6 mps 670 mmHg 28%
    13:00 +27°C° 0.1 mm 5 mps 669 mmHg 29%
    14:00 +27°C° 0.1 mm 5 mps 669 mmHg 29%
    15:00 +27°C° 0.1 mm 5 mps 668 mmHg 30%
    16:00 +25°C° 0.6 mm 5 mps 668 mmHg 36%
    17:00 +23°C° 0.6 mm 4 mps 667 mmHg 42%
    18:00 +21°C° 0.6 mm 4 mps 667 mmHg 48%
    19:00 +21°C° 0.1 mm 4 mps 667 mmHg 49%
    20:00 +21°C° 0.1 mm 4 mps 668 mmHg 50%
    21:00 +21°C° 0.1 mm 4 mps 669 mmHg 51%
    22:00 +21°C° 0.2 mm 4 mps 668 mmHg 51%
    23:00 +20°C° 0.2 mm 4 mps 668 mmHg 51%

    Tomorrow, 29 May, Friday

    Time Temperature Precipitation Wind Pressure Humidity
    00:00 +20°C° 0.2 mm 3 mps 667 mmHg 52%
    01:00 +20°C° 0.3 mm 3 mps 667 mmHg 53%
    02:00 +20°C° 0.3 mm 3 mps 667 mmHg 54%
    03:00 +19°C° 0.3 mm 3 mps 666 mmHg 55%
    04:00 +19°C° 0.3 mm 4 mps 666 mmHg 54%
    05:00 +19°C° 0.3 mm 5 mps 666 mmHg 52%
    06:00 +19°C° 0.3 mm 6 mps 666 mmHg 51%
    07:00 +20°C° 0.1 mm 7 mps 666 mmHg 46%
    08:00 +21°C° 0.1 mm 7 mps 666 mmHg 42%
    09:00 +23°C° 0.1 mm 8 mps 666 mmHg 38%
    10:00 +24°C° 0.1 mm 8 mps 666 mmHg 35%
    11:00 +26°C° 0.1 mm 7 mps 666 mmHg 32%
    12:00 +28°C° 0.1 mm 7 mps 666 mmHg 29%
    13:00 +28°C° 0.1 mm 6 mps 665 mmHg 28%
    14:00 +29°C° 0.1 mm 5 mps 665 mmHg 26%
    15:00 +29°C° 0.1 mm 4 mps 664 mmHg 24%
    16:00 +28°C° 0.1 mm 5 mps 664 mmHg 30%
    17:00 +26°C° 0.1 mm 5 mps 663 mmHg 35%
    18:00 +24°C° 0.1 mm 6 mps 663 mmHg 41%
    19:00 +22°C° 0.1 mm 7 mps 663 mmHg 46%
    20:00 +21°C° 0.1 mm 7 mps 663 mmHg 52%
    21:00 +20°C° 0.1 mm 7 mps 663 mmHg 57%
    22:00 +20°C° 0 mm 6 mps 663 mmHg 58%
    23:00 +19°C° 0 mm 5 mps 663 mmHg 58%

    Day after tomorrow, 30 May, Saturday

    Time Temperature Precipitation Wind Pressure Humidity
    00:00 +19°C° 0 mm 4 mps 663 mmHg 58%
    01:00 +19°C° 0.1 mm 4 mps 663 mmHg 58%
    02:00 +19°C° 0.1 mm 4 mps 662 mmHg 59%
    03:00 +19°C° 0.1 mm 3 mps 662 mmHg 59%
    04:00 +19°C° 0.3 mm 3 mps 662 mmHg 61%
    05:00 +19°C° 0.3 mm 3 mps 662 mmHg 63%
    06:00 +19°C° 0.3 mm 3 mps 662 mmHg 65%
    07:00 +20°C° 0 mm 3 mps 663 mmHg 60%
    08:00 +22°C° 0 mm 3 mps 663 mmHg 54%
    09:00 +23°C° 0 mm 4 mps 663 mmHg 48%
    10:00 +25°C° 0 mm 4 mps 663 mmHg 43%
    11:00 +26°C° 0 mm 4 mps 664 mmHg 38%
    12:00 +27°C° 0 mm 4 mps 664 mmHg 33%
    13:00 +27°C° 0 mm 5 mps 664 mmHg 31%
    14:00 +28°C° 0 mm 5 mps 664 mmHg 28%
    15:00 +28°C° 0 mm 5 mps 663 mmHg 25%
    16:00 +28°C° 0 mm 5 mps 663 mmHg 26%
    17:00 +27°C° 0 mm 6 mps 663 mmHg 27%
    18:00 +27°C° 0 mm 6 mps 663 mmHg 27%
    19:00 +25°C° 0 mm 5 mps 663 mmHg 31%
    20:00 +23°C° 0 mm 5 mps 664 mmHg 34%
    21:00 +22°C° 0 mm 5 mps 664 mmHg 38%
    22:00 +21°C° 0 mm 4 mps 664 mmHg 40%
    23:00 +21°C° 0 mm 3 mps 664 mmHg 41%

    31 May, Sunday

    Time Temperature Precipitation Wind Pressure Humidity
    00:00 +20°C° 0 mm 2 mps 664 mmHg 43%
    01:00 +19°C° 0 mm 2 mps 664 mmHg 43%
    02:00 +19°C° 0 mm 2 mps 663 mmHg 43%
    03:00 +18°C° 0 mm 2 mps 663 mmHg 42%
    04:00 +19°C° 0 mm 2 mps 664 mmHg 45%
    05:00 +19°C° 0 mm 2 mps 664 mmHg 47%
    06:00 +19°C° 0 mm 2 mps 664 mmHg 49%
    07:00 +21°C° 0 mm 3 mps 665 mmHg 46%
    08:00 +22°C° 0 mm 3 mps 665 mmHg 44%
    09:00 +23°C° 0 mm 4 mps 666 mmHg 42%
    10:00 +25°C° 0 mm 4 mps 666 mmHg 40%
    11:00 +26°C° 0 mm 4 mps 666 mmHg 38%
    12:00 +27°C° 0 mm 4 mps 666 mmHg 36%
    13:00 +28°C° 0 mm 4 mps 666 mmHg 34%
    14:00 +29°C° 0 mm 4 mps 665 mmHg 32%
    15:00 +30°C° 0 mm 4 mps 665 mmHg 30%
    16:00 +29°C° 0.3 mm 3 mps 665 mmHg 34%
    17:00 +27°C° 0.3 mm 2 mps 664 mmHg 37%
    18:00 +26°C° 0.3 mm 1 mps 664 mmHg 40%
    19:00 +26°C° 0 mm 2 mps 664 mmHg 42%
    20:00 +25°C° 0 mm 2 mps 665 mmHg 44%
    21:00 +25°C° 0 mm 3 mps 665 mmHg 45%
    22:00 +24°C° 0 mm 3 mps 665 mmHg 49%
    23:00 +22°C° 0 mm 3 mps 665 mmHg 52%

    1 June, Monday

    Time Temperature Precipitation Wind Pressure Humidity
    00:00 +22°C° 0 mm 3 mps 665 mmHg 56%
    01:00 +21°C° 0 mm 3 mps 665 mmHg 56%
    02:00 +21°C° 0 mm 3 mps 665 mmHg 56%
    03:00 +21°C° 0 mm 3 mps 664 mmHg 57%
    04:00 +21°C° 0 mm 3 mps 665 mmHg 54%
    05:00 +23°C° 0 mm 2 mps 665 mmHg 52%
    06:00 +23°C° 0 mm 2 mps 665 mmHg 50%
    07:00 +25°C° 0 mm 3 mps 666 mmHg 41%
    08:00 +27°C° 0 mm 5 mps 666 mmHg 32%
    09:00 +29°C° 0 mm 6 mps 667 mmHg 24%
    10:00 +30°C° 0 mm 7 mps 667 mmHg 22%
    11:00 +32°C° 0 mm 8 mps 666 mmHg 20%
    12:00 +33°C° 0 mm 9 mps 666 mmHg 18%
    13:00 +33°C° 0 mm 9 mps 666 mmHg 18%
    14:00 +34°C° 0 mm 9 mps 666 mmHg 18%
    15:00 +34°C° 0 mm 9 mps 665 mmHg 18%
    16:00 +33°C° 0 mm 9 mps 665 mmHg 18%
    17:00 +32°C° 0 mm 8 mps 665 mmHg 19%
    18:00 +30°C° 0 mm 7 mps 665 mmHg 20%
    19:00 +29°C° 0 mm 6 mps 665 mmHg 23%
    20:00 +27°C° 0 mm 4 mps 665 mmHg 26%
    21:00 +26°C° 0 mm 2 mps 665 mmHg 29%
    22:00 +26°C° 0 mm 2 mps 665 mmHg 29%
    23:00 +25°C° 0 mm 2 mps 664 mmHg 29%

    2 June, Tuesday

    Time Temperature Precipitation Wind Pressure Humidity
    00:00 +25°C° 0 mm 2 mps 664 mmHg 30%
    01:00 +24°C° 0 mm 2 mps 664 mmHg 30%
    02:00 +24°C° 0 mm 2 mps 663 mmHg 31%
    03:00 +24°C° 0 mm 2 mps 663 mmHg 32%
    04:00 +24°C° 0 mm 2 mps 663 mmHg 32%
    05:00 +25°C° 0 mm 1 mps 664 mmHg 32%
    06:00 +25°C° 0 mm 1 mps 664 mmHg 33%
    07:00 +27°C° 0 mm 2 mps 665 mmHg 29%
    08:00 +28°C° 0 mm 2 mps 665 mmHg 26%
    09:00 +29°C° 0 mm 3 mps 665 mmHg 22%
    10:00 +30°C° 0 mm 3 mps 665 mmHg 22%
    11:00 +32°C° 0 mm 4 mps 665 mmHg 22%
    12:00 +33°C° 0 mm 4 mps 665 mmHg 22%
    13:00 +34°C° 0 mm 5 mps 665 mmHg 21%
    14:00 +34°C° 0 mm 5 mps 664 mmHg 20%
    15:00 +35°C° 0 mm 6 mps 664 mmHg 19%
    16:00 +34°C° 0 mm 6 mps 663 mmHg 21%
    17:00 +33°C° 0 mm 6 mps 663 mmHg 24%
    18:00 +32°C° 0 mm 5 mps 663 mmHg 26%
    19:00 +29°C° 0 mm 4 mps 663 mmHg 31%
    20:00 +28°C° 0 mm 3 mps 663 mmHg 37%
    21:00 +26°C° 0 mm 1 mps 663 mmHg 42%
    22:00 +26°C° 0 mm 2 mps 663 mmHg 44%
    23:00 +25°C° 0 mm 2 mps 663 mmHg 45%
    Show more